AQI (48)

Current Conditions for Foresthill, CA. Sunny, Dry   
Visibility: 10 miles
Space WX Alerts: EXTENDED WARNING:  Geomagnetic K-index of 4 expected ( Latest Alert ) - Issue Time: 2018 Jul 06 0255 UTC

  Summary / Temperature 

Current Temperature
88.9°F
31.6°C
(24/hr Ago)
88.0°F
(Apparent temp)
89.6°F
Warm
Heat Index
88.1°F 

96.1°F/ 35.6°C
Evident discomfort

 Temp Rate:

 24/hr Difference:

 Avg Running Temp:

 Todays High:

 Todays Low:

 Y-days High:

 Y-days Low:

 Todays HeatIdx:

 Y-days HeatIdx:

 Evapotranspiration:

+2.1°F/hr 

+0.9°F

86.9°F

88.8°F 1:46pm

72.6°F 6:14am

88.8°F 2:14pm

70.1°F 6:49am

88.9°F 1:27pm

88.7°F 2:21pm

0.105 in

115' Above Ground

 Temperature:

 6'AGL VRS 115'AGL:

 Avg Running Temp:

 Humidity:

 Todays High:

 Todays Low:

 Y-days High:

 Y-days Low:

88.0°F 

-0.9°F

87.6°F

38% 

88.0°F 10:20am

75.0°F 4:06am

90.0°F 3:48pm

73.0°F 5:01am

Temp & Humidity Graphs

  Wind 

Wind Speed

 4.0 mph

Gusting to

 11.0 mph

Wind from WSW

242°  WSW

Light breeze

 Avg speed:

 Wind Run:

 Peak Gust:

  4.0 mph 

22.0 miles

  14.0 mph 6:19am

  Almanac  

Moon age: 3 days,4 hours,1 minutes,11%

Waxing Crescent
11%
Illuminated
3 days in cycle

 Moonrise:

 Moonset:

 Sunrise:

 Sunset:

 Solar Noon:

8:51am

10:43pm

5:50am

8:28pm

1:10pm

1min 13s less daylight tomorrow 

  Solar Radiation 

(Current Solar)
  886 W/m2 (81%)
(Todays High)
 902 W/m2@1:03pm
Feels like: 106.9°F in the sun

Rain

 Rain Today:

 Rain Rate (/hr):

 Rain last hour:

 Rain Yesterday:

 This Month:

 Season Total:

50 Days Since Last Rain Day

0.00 in

0.000 in

0.00 in

0.00 in

0.00 in

0.00 in

Updated Time

Updated: 7/15/18  1:47pm

(Updated  sec ago)

Humidity & Barometer

 Humidity:

 Wetbulb:

 Dew Point:

 Barometer:

37% 

70.5°F 

59.3°F 

29.897 inHg 

 Baro Trend:  Steady 
Northern Calif
Preparedness
Fire 
Level 

    UV Index  

(Current UV)
9.1  Very High
(Todays High) @ 12:55pm
9.3   Very High

National Weather Service Forecast

This
Afternoon
This Afternoon: Sunny
Sunny
Tonight

Tonight: Clear
Clear
Monday

Monday: Sunny
Sunny
Monday
Night
Monday Night: Clear
Clear
Tuesday

Tuesday: Sunny
Sunny
Tuesday
Night
Tuesday Night: Mostly Clear
Mostly Clear
Hi 93 °F Lo 72 °F Hi 93 °F Lo 72 °F Hi 97 °F Lo 70 °F

Foresthill Probe 2 Stats  
Foresthill Probe 2: is located on Thomas Street
at 3000 feet. The main Foresthill Weather site
is located on Melody ln at the 2860 foot elevation

Light Air
89.6°F
32°C
Temp Rate:
+0.4°F
Calm
Gusting to
4.0 mph
(Humidity)
37%
Wind from SSE
159°  SSE
Updated: 15/07/18 - 13:42:45
 Todays High: 93.6°F 13:07
 Todays Low: 71.4°F 06:13
 Rain Today: 0.00 in
 Season Total: 0.00 in

Foresthill Wx: Monthly,Yearly, Highs and Lows 

Foresthill  
This Weather Data is coming from the main Foresthill
Weather site located on Melody ln at the 2860 foot
elevation
Not Foresthill Probe 2
Weather Data
Month
  High
Month
  Low
Year
High
Year
Low
Temp 90.4°F
7/8/18
60.2°F
7/5/18
91.4°F
6/24/18
21.9°F
2/23/18
Humidity 73%
7/4/18
12%
7/8/18
100%
1/8/18
12%
7/8/18
Heat Index 88.9°F
7/15/18
63.2°F
7/5/18
89.1°F
6/24/18
27.1°F
2/20/18
Wind Chill 90.4°F
7/8/18
58.8°F
7/5/18
91.4°F
6/24/18
9.2°F
2/23/18
Wind Gust 20 mph
7/3/18
0 mph
7/1/18
43 mph
3/1/18
0 mph
1/1/18
Barometer 30.18 in
7/5/18
29.73 in
7/3/18
30.55 in
1/27/18
29.60 in
6/16/18
ET 0.25 in
7/8/18
0.00 in
7/1/18
0.25 in
6/24/18
0.00 in
1/1/18
Dew Point 65.3°F
7/15/18
28.9°F
7/8/18
65.3°F
7/15/18
7.6°F
2/11/18
Pacific Satellite US Radar Satellite Imagery Sacramento,CA.  (click to enlarge)
NWS Weather Forecast - Summary
Updated: Sunday, July 15, 2018 - 1:06pm PDT
Increased fire starts possible in thunderstorms
Current Interstate Highway Conditions for I-80 & US-50

[I 80: IN THE SAN FRANCISCO BAY AREA - SOLANO CO]
no traffic restrictions are reported for this area.

[I 80: IN THE NORTHERN CALIFORNIA AREA & SIERRA NEVADA]
no traffic restrictions are reported for this area.

[US 50: IN THE SACRAMENTO VALLEY & THE LAKE TAHOE BASIN]
no traffic restrictions are reported for this area.
NWS Weather Forecast: This Afternoon and Tonight (Updated: Sun, 15-Jul-2018 7:51am PDT)
This
Afternoon
This Afternoon: Sunny
Sunny

Hi 93 °F
NWS forecast: Sunny, with a high near 93. Southwest wind around 8 mph.
Tonight

Tonight: Clear
Clear

Lo 72 °F
NWS forecast: Clear, with a low around 72. South southeast wind around 8 mph.
YR.NO 10 Day Weather forecast
Last update: 07/15/2018 @ 00:44
Next update: 07/15/2018 @ 13:00
Provided by: 22
      Temperature Precipitation Pressure Wind  
Today
07/15/2018
12:00 18:00 90°F   29.91 inHg Light breeze from west-southwest 7 mph
  18:00 00:00 90°F   29.85 inHg Light breeze from southwest 6 mph
    (Click to enlarge)
meteogram

    Forecast for next 9 days

      Temperature Precip Pressure Wind  
Monday
07/16/2018
00:00 06:00 66°F   29.91 inHg Light air from east-northeast 3 mph
  06:00 12:00 61°F   29.91 inHg Light breeze from east-northeast 5 mph
  12:00 18:00 93°F   29.92 inHg Light breeze from southwest 7 mph
  18:00 00:00 90°F   29.87 inHg Light breeze from southwest 6 mph
      Temperature Precip Pressure Wind  
Tuesday
07/17/2018
00:00 06:00 63°F   29.91 inHg Light breeze from east-northeast 4 mph
  06:00 12:00 59°F   29.92 inHg Light breeze from east-northeast 5 mph
  12:00 18:00 95°F   29.92 inHg Light breeze from southwest 7 mph
  17:00 23:00 93°F   29.87 inHg Light breeze from southwest 6 mph
  23:00 05:00 68°F   29.90 inHg Light air from east-northeast 2 mph
      Temperature Precip Pressure Wind  
Wednesday
07/18/2018
05:00 11:00 61°F   29.90 inHg Light breeze from east-northeast 6 mph
  11:00 17:00 95°F   29.91 inHg Light breeze from southwest 5 mph
  17:00 23:00 97°F   29.82 inHg Light breeze from west-southwest 6 mph
  23:00 05:00 75°F   29.86 inHg Light air from east 3 mph
      Temperature Precip Pressure Wind  
Thursday
07/19/2018
05:00 11:00 66°F   29.84 inHg Light breeze from east-northeast 6 mph
  11:00 17:00 93°F   29.87 inHg Light breeze from southwest 6 mph
  17:00 23:00 93°F   29.81 inHg Light breeze from southwest 7 mph
  23:00 05:00 73°F   29.88 inHg Light air from east 1 mph
      Temperature Precip Pressure Wind  
Friday
07/20/2018
05:00 11:00 64°F   29.86 inHg Light breeze from east-northeast 4 mph
  11:00 17:00 90°F   29.90 inHg Light breeze from southwest 6 mph
  17:00 23:00 91°F   29.85 inHg Light breeze from southwest 7 mph
  23:00 05:00 73°F   29.94 inHg Light air from east-southeast 2 mph
      Temperature Precip Pressure Wind  
Saturday
07/21/2018
05:00 11:00 66°F   29.95 inHg Light air from east-northeast 3 mph
  11:00 17:00 88°F   29.97 inHg Light breeze from west-southwest 6 mph
  17:00 23:00 91°F   29.91 inHg Light breeze from west-southwest 6 mph
  23:00 05:00 73°F   30.01 inHg Light air from east-southeast 2 mph
      Temperature Precip Pressure Wind  
Sunday
07/22/2018
05:00 11:00 64°F   30.00 inHg Light breeze from east-northeast 4 mph
  11:00 17:00 90°F   30.01 inHg Light breeze from west-southwest 6 mph
  17:00 23:00 90°F   29.98 inHg Light breeze from west-southwest 6 mph
  23:00 05:00 75°F   30.03 inHg Light air from east-southeast 2 mph
      Temperature Precip Pressure Wind  
Monday
07/23/2018
05:00 11:00 66°F   29.99 inHg Light breeze from east-northeast 4 mph
  11:00 17:00 91°F   29.99 inHg Light breeze from west-southwest 6 mph
  17:00 23:00 95°F   29.93 inHg Light breeze from west-southwest 6 mph
  23:00 05:00 77°F   29.95 inHg Light air from east-northeast 2 mph
      Temperature Precip Pressure Wind  
Tuesday
07/24/2018
05:00 11:00 68°F   29.91 inHg Light breeze from east-northeast 6 mph
  11:00 17:00 97°F   29.90 inHg Light breeze from west-southwest 7 mph

NOAA Local Storm Report
7 MILES NORTH-NORTHWEST OF BUCKS LAKE   ( More )
DATE
07/15/2018
TIME
4:58 AM
COUNTY
PLUMAS
STATE
CA
GEOGRAPHIC
39.98N 121.24W
SOURCE
LAW ENFORCEMENT
HEAVY RAIN UNDER 0.00 INCH
rock slide covering the west bound lane of highway 70.
How Close Are We To this Month's Temperature Record ?
Updated Sunday, Jul 15, 2018- 1:40:01 PM

Current Temperature: 88.9°F

July's High: Temperature Record 98.1°F - Set on Wed, Jul 29, 2015 - 2:57:00 PM
We are currently 9.2°F Less than this Month's record High

July's Low: Temperature Record 51.4°F - Set on Sun, Jul 10, 2016 - 7:04:00 AM
We are currently 37.5°F More than this Month's record Low

Weather History For Sunday, July 15, 2018


On this Day - In Weather History ...
Data courtesy of weatherforyou.com
powered by Cumulus v1.9.3 (1059)
Ambient Weather VWS v14.00
Top Contact Website Map Copyright © 2007 - 2018 Foresthillweather.com Never base important decisions on this or any weather information obtained from the Internet